Voltar ao catálogo

ONEWEB-0208

AtivoComunicaçõesPO
NORAD 48243·PAYLOAD·🇬🇧 United Kingdom

Lançado Apr 25, 2021 de Vostochny Cosmodrome

Loading…

Próximas Passagens (próximas 24 horas)

TLE

AtualizadoSource: CelesTrak SupGP

Época: Sep 14, 2026, 20:00 UTC

1 48243C 21031AK  26257.83348796  .00001191  00000+0  32153-2 0  2572
2 48243  87.8889 271.8277 0001642  88.2495 307.1802 13.14496693    12

Acompanhe ONEWEB-0208 em tempo real com AllMySat

Download on the App Store